Starlink 4083

operational
NORAD ID: 52832 Int'l Des: 2022-062 Owner: SPXS Country: US Constellation: starlink
LEOCIRCULAR

About Starlink 4083

Description loading...

Live Position

Loading 3D Globe...

Upcoming Passes

Altitude History

Altitude vs Time

uPlot chart will show altitude changes over time

Two-Line Element Set

1 52832U 22062C 25257.97102223 -.00013021 00000-0 -80098-3 0 9996
2 52832 53.2159 102.9529 0001288 83.8603 276.2536 15.08862885179258
Epoch: Sep 14, 2025 • Age: 22 hours

Current Status

Altitude 547.0 km
Velocity 7.59 km/s
Sub-Earth Point -23.92°S, 123.05°E
Launch Date Jun 17, 2022
Age 3.2 years
Type internet

Technical Details

Classification Payload
Mass 297.00 kg
Dry Mass 275.00 kg
Total Mass 297.00 kg
Length 0.20 m
Diameter 2.80 m
Span 9.00 m
Shape Box + pan
Manufacturer SPXS
Bus Type Starlink
Phase Status In Orbit
Owner/State SPXS/US

Large Constellations

Loading constellations...